World > North America > United States > North Carolina

Grimesland, North Carolina Regional Weather

Lat: 35.56N, Lon: 77.19W
Wx Zone: NCZ044
Feedback

Grimesland, NC Regional Weather

Expires:201910160500;;776977
ASUS42 KMHX 160426
RWRMHX
WEATHER ROUNDUP FOR EASTERN NORTH CAROLINA
NATIONAL WEATHER SERVICE NEWPORT/MOREHEAD CITY NC
1200 AM EDT WED OCT 16 2019

NOTE: "FAIR" INDICATES FEW OR NO CLOUDS BELOW 12,000 FEET
WITH NO SIGNIFICANT WEATHER AND/OR OBSTRUCTIONS TO VISIBILITY


NCZ011>013-027>030-043-044-078>080-089-090>093-098-160500-
COASTAL PLAIN
  
CITY           SKY/WX    TMP DP  RH WIND       PRES   REMARKS
AHOSKIE        NOT AVBL                                               
CLINTON        NOT AVBL                                               
ELIZABETHTOWN  CLOUDY    64  59  83 CALM      30.00F                  
GOLDSBORO      FAIR      59  55  86 E3        30.00S                  
GREENVILLE     FAIR      59  54  82 CALM      30.03F                  
HAVELOCK       NOT AVBL                                               
KENANSVILLE    NOT AVBL                                               
KINSTON        MOCLDY    57  54  91 CALM      30.02F                  
NEW BERN       FAIR      60  60 100 CALM      30.02S                  
RICHLANDS      FAIR      60  58  92 CALM      30.02S                  
ROCKY MOUNT    FAIR      56  54  93 CALM      30.02F                  
WASHINGTON     FAIR      58  56  93 CALM      30.02F                  
WHITEVILLE     NOT AVBL                                               

$$


SKY/WX - Weather  TMP - Temperature  DP - Dew Point  RH - Relative Humidity
WIND - Wind Direction/Speed PRES - Barometric Pressure VSB - Visibility
WCI - Wind Chill Index E13G22 Wind - East Wind 13 mph/Gusts of 22 mph